Date String (YYYY-MM-DD hh:mm:ss) UTC,Instrument flags,Ambient pressure (hPa),Sample flow (lpm),Bypass flow (lpm),Sample temperature (°C),Ambient temperature (°C),ASC tube jacket temperature (°C),LED temperature (°C),Box temperature (°C),Sample RH (%),Span deviation,Mass concentration (μg/m³),Mass concentration (μg/m³),Mass concentration (μg/m³)
DateTimeUTC,F1_M11,P_M11,Q1_M11,Q2_M11,T1_M11,T2_M11,T3_M11,T4_M11,T5_M11,U1_M11,ZSPAN_M11,X0_M11,X2_M11,X1_M11
2022-08-05 21:00:00,,0825.8,5.01,0.00,29.2,28.0,00.0,37.9,31.2,26.9,0000.0,0012.43,0006.03,0005.01
2022-08-05 21:01:00,,0825.9,4.99,0.00,29.2,27.4,00.0,37.8,31.0,27.0,0000.0,0012.01,0006.01,0005.01
2022-08-05 21:02:00,,0825.8,5.01,0.00,29.1,27.0,00.0,37.8,30.9,26.9,0000.0,0011.47,0005.95,0005.00
2022-08-05 21:03:00,,0825.8,4.99,0.00,29.1,26.9,00.0,37.8,30.9,26.9,0000.0,0011.54,0005.92,0004.98
2022-08-05 21:04:00,,0825.8,5.00,0.00,29.0,27.0,00.0,37.8,30.8,26.5,0000.0,0011.54,0005.89,0004.98
2022-08-05 21:05:00,,0825.9,5.00,0.00,29.0,27.2,00.0,37.8,30.8,26.8,0000.0,0011.72,0005.86,0004.96
2022-08-05 21:06:00,,0825.8,4.99,0.00,29.0,27.4,00.0,37.8,30.9,26.8,0000.0,0011.74,0005.84,0004.95
2022-08-05 21:07:00,,0825.7,5.00,0.00,29.1,27.6,00.0,37.8,31.0,26.5,0000.0,0011.71,0005.84,0004.96
2022-08-05 21:08:00,,0825.9,5.01,0.00,29.1,27.8,00.0,37.8,31.1,26.4,0000.0,0011.01,0005.87,0004.96
2022-08-05 21:09:00,,0825.8,5.00,0.00,29.2,28.0,00.0,37.8,31.2,26.3,0000.0,0011.06,0005.91,0004.96
2022-08-05 21:10:00,,0825.8,4.99,0.00,29.2,27.8,00.0,37.8,31.1,26.3,0000.0,0010.95,0005.94,0004.97
2022-08-05 21:11:00,,0826.0,5.00,0.00,29.2,27.2,00.0,37.8,31.0,26.6,0000.0,0010.71,0005.93,0004.98
2022-08-05 21:12:00,,0825.9,5.00,0.00,29.1,26.9,00.0,37.8,30.9,26.6,0000.0,0010.62,0005.92,0004.98
2022-08-05 21:13:00,,0825.8,4.99,0.00,29.1,26.9,00.0,37.8,30.8,26.4,0000.0,0010.82,0006.00,0005.00
2022-08-05 21:14:00,,0826.0,5.01,0.00,29.0,27.1,00.0,37.8,30.8,26.6,0000.0,0010.74,0006.04,0005.02
2022-08-05 21:15:00,,0825.9,4.99,0.00,29.0,27.3,00.0,37.8,30.8,26.7,0000.0,0010.18,0006.03,0005.02
2022-08-05 21:16:00,,0826.0,5.01,0.00,29.0,27.5,00.0,37.8,30.9,26.9,0000.0,0010.02,0006.04,0005.03
2022-08-05 21:17:00,,0826.1,5.00,0.00,29.1,27.7,00.0,37.8,31.0,26.7,0000.0,0009.99,0006.04,0005.02
2022-08-05 21:18:00,,0826.0,4.99,0.00,29.1,27.9,00.0,37.8,31.1,26.2,0000.0,0010.05,0006.08,0005.03
2022-08-05 21:19:00,,0825.8,5.00,0.00,29.2,28.0,00.0,37.8,31.2,26.1,0000.0,0010.03,0006.08,0005.04
2022-08-05 21:20:00,,0825.7,5.01,0.00,29.2,27.9,00.0,37.9,31.2,25.8,0000.0,0009.90,0006.05,0005.02
2022-08-05 21:21:00,,0825.8,4.99,0.00,29.2,27.3,00.0,37.8,31.0,25.8,0000.0,0009.96,0006.00,0004.98
2022-08-05 21:22:00,,0825.7,5.00,0.00,29.1,27.0,00.0,37.8,31.0,26.2,0000.0,0010.04,0006.02,0004.95
2022-08-05 21:23:00,,0825.7,5.00,0.00,29.1,27.0,00.0,37.8,30.9,26.2,0000.0,0010.23,0006.04,0004.94
2022-08-05 21:24:00,,0825.7,5.00,0.00,29.0,27.1,00.0,37.8,30.8,26.0,0000.0,0010.63,0005.98,0004.92
2022-08-05 21:25:00,,0825.7,5.00,0.00,29.0,27.3,00.0,37.8,30.8,26.0,0000.0,0010.57,0005.94,0004.88
2022-08-05 21:26:00,,0825.7,4.99,0.00,29.1,27.5,00.0,37.8,30.9,26.2,0000.0,0010.95,0005.97,0004.88
2022-08-05 21:27:00,,0825.7,5.00,0.00,29.1,27.7,00.0,37.8,31.0,26.1,0000.0,0011.34,0006.00,0004.87
2022-08-05 21:28:00,,0825.7,5.00,0.00,29.1,27.9,00.0,37.8,31.1,25.9,0000.0,0011.37,0006.00,0004.87
2022-08-05 21:29:00,,0825.7,5.00,0.00,29.2,28.0,00.0,37.9,31.2,25.8,0000.0,0011.29,0005.97,0004.87
2022-08-05 21:30:00,,0825.6,5.00,0.00,29.2,28.0,00.0,37.9,31.2,25.7,0000.0,0011.20,0005.93,0004.86
2022-08-05 21:31:00,,0825.6,5.01,0.00,29.2,27.4,00.0,37.8,31.0,25.8,0000.0,0011.26,0005.96,0004.85
2022-08-05 21:32:00,,0825.6,4.99,0.00,29.2,27.0,00.0,37.8,31.0,26.2,0000.0,0011.23,0006.01,0004.88
2022-08-05 21:33:00,,0825.6,5.01,0.00,29.1,27.0,00.0,37.8,30.9,26.3,0000.0,0011.05,0005.99,0004.91
2022-08-05 21:34:00,,0825.5,4.98,0.00,29.1,27.1,00.0,37.8,30.8,26.4,0000.0,0011.18,0006.03,0004.92
2022-08-05 21:35:00,,0825.4,5.01,0.00,29.0,27.3,00.0,37.8,30.8,26.2,0000.0,0011.15,0006.03,0004.92
2022-08-05 21:36:00,,0825.4,4.99,0.00,29.1,27.5,00.0,37.8,30.9,26.1,0000.0,0010.97,0005.96,0004.94
2022-08-05 21:37:00,,0825.5,5.00,0.00,29.1,27.6,00.0,37.8,31.0,25.9,0000.0,0010.99,0005.98,0004.96
2022-08-05 21:38:00,,0825.5,5.00,0.00,29.1,27.8,00.0,37.8,31.0,25.8,0000.0,0010.66,0005.98,0004.98
2022-08-05 21:39:00,,0825.4,5.00,0.00,29.2,28.0,00.0,37.9,31.1,25.9,0000.0,0011.01,0006.00,0004.99
2022-08-05 21:40:00,,0825.5,5.01,0.00,29.2,27.6,00.0,37.9,31.1,25.9,0000.0,0011.52,0006.02,0005.01
2022-08-05 21:41:00,,0825.4,4.99,0.00,29.1,27.0,00.0,37.8,30.9,26.2,0000.0,0011.78,0006.10,0005.03
2022-08-05 21:42:00,,0825.4,5.01,0.00,29.1,26.8,00.0,37.8,30.9,26.3,0000.0,0012.22,0006.17,0005.08
2022-08-05 21:43:00,,0825.5,4.99,0.00,29.0,26.9,00.0,37.8,30.8,26.6,0000.0,0012.31,0006.19,0005.13
2022-08-05 21:44:00,,0825.4,5.01,0.00,29.0,27.1,00.0,37.8,30.8,26.7,0000.0,0012.48,0006.27,0005.16
2022-08-05 21:45:00,,0825.4,5.00,0.00,29.0,27.3,00.0,37.8,30.8,26.6,0000.0,0012.47,0006.28,0005.18
2022-08-05 21:46:00,,0825.4,5.01,0.00,29.0,27.5,00.0,37.8,30.9,26.7,0000.0,0011.88,0006.26,0005.19
2022-08-05 21:47:00,,0825.4,5.00,0.00,29.1,27.7,00.0,37.8,31.0,26.8,0000.0,0011.89,0006.30,0005.20
2022-08-05 21:48:00,,0825.4,4.99,0.00,29.1,27.9,00.0,37.8,31.1,26.8,0000.0,0011.64,0006.28,0005.19
2022-08-05 21:49:00,,0825.3,5.00,0.00,29.2,28.0,00.0,37.8,31.1,26.6,0000.0,0011.63,0006.31,0005.18
2022-08-05 21:50:00,,0825.4,5.00,0.00,29.2,27.8,00.0,37.8,31.1,26.4,0000.0,0011.50,0006.31,0005.15
2022-08-05 21:51:00,,0825.4,5.01,0.00,29.1,27.1,00.0,37.8,30.9,26.5,0000.0,0010.95,0006.28,0005.11
2022-08-05 21:52:00,,0825.3,5.00,0.00,29.1,26.8,00.0,37.8,30.9,26.5,0000.0,0010.69,0006.22,0005.07
2022-08-05 21:53:00,,0825.3,5.00,0.00,29.1,26.9,00.0,37.8,30.8,26.6,0000.0,0010.18,0006.08,0005.02
2022-08-05 21:54:00,,0825.3,5.01,0.00,29.0,27.0,00.0,37.8,30.8,26.5,0000.0,0009.95,0005.99,0004.95
2022-08-05 21:55:00,,0825.3,5.00,0.00,29.0,27.2,00.0,37.8,30.8,26.5,0000.0,0009.95,0005.87,0004.86
2022-08-05 21:56:00,,0825.4,4.99,0.00,29.0,27.4,00.0,37.8,30.9,26.5,0000.0,0010.05,0005.76,0004.78
2022-08-05 21:57:00,,0825.3,5.01,0.00,29.1,27.6,00.0,37.8,31.0,26.4,0000.0,0010.22,0005.67,0004.70
2022-08-05 21:58:00,,0825.3,5.01,0.00,29.1,27.8,00.0,37.8,31.1,26.3,0000.0,0010.25,0005.59,0004.63
2022-08-05 21:59:00,,0825.3,5.00,0.00,29.2,28.0,00.0,37.8,31.1,26.3,0000.0,0010.17,0005.52,0004.57
